Location: Unspecified
(49.2170°N, 0.0000°E)
Time: 16:36:00
(UTC+00:00)

Envisat - Pass Details

Date: 26 November 2020
Orbit: 764 x 766 km, 98.1° (Epoch: 20 January)

Event Time Altitude Azimuth Distance (km) Brightness Sun altitude
Rises 18:01:49 0° 200° (SSW) 3,221 6.7 -18.1°
Reaches altitude 10° 18:04:31 10° 214° (SW) 2,300 6.1 -18.5°
Maximum altitude 18:08:36 24° 268° (W) 1,545 5.4 -19.2°
Drops below altitude 10° 18:12:43 10° 322° (NW) 2,315 5.8 -19.9°
Sets 18:15:28 0° 336° (NNW) 3,247 6.4 -20.3°
